Weather History for Edinburg, TX

Change the Weather History Date:

Sunday, October 30, 2011

  Actual Average (KMFE) Record (KMFE)
Temperature  
Mean Temperature 66 °F 74 °F  
Max Temperature 84 °F 85 °F 95 °F (1942)
Min Temperature 49 °F 64 °F 45 °F (1970)
Degree Days  
Heating Degree Days 0 0  
Month to date heating degree days 0  
Since 1 July heating degree days 0  
Cooling Degree Days 2 10  
Month to date cooling degree days 374  
Year to date cooling degree days 4173  
Growing Degree Days 16 (Base 50)    
Moisture  
Dew Point 50 °F    
Average Humidity 58    
Maximum Humidity 82    
Minimum Humidity 31    
Precipitation  
Precipitation 0.00 in 0.06 in 2.10 in (1949)
Month to date precipitation 2.03  
Year to date precipitation 20.07  
Sea Level Pressure  
Sea Level Pressure 30.10 in    
Wind  
Wind Speed 4 mph (East)    
Max Wind Speed 17 mph    
Max Gust Speed -    
Visibility 9 miles    
Events      
T = Trace of Precipitation, MM = Missing Value Source: NWS Daily Summary

Daily Weather History Graph

Daily Weather History Graph

Search for Another Location

Airport:

Trip Planner

Search our weather history database for the weather conditions in past years. The results will help you decide how hot, cold, wet, or windy it might be!

Date:

Astronomy

Oct. 30, 2011 Rise Set
Actual Time 7:40 AM CDT 6:51 PM CDT
Civil Twilight 7:16 AM CDT 7:15 PM CDT
Nautical Twilight 6:49 AM CDT 7:42 PM CDT
Astronomical Twilight 6:22 AM CDT 8:09 PM CDT
Moon 11:44 AM CDT (10/30) 10:36 PM CDT (10/30)
Length of Visible Light 11h 58m
Length of Day
11h 11m
Waxing Crescent, 20% of the Moon is Illuminated
Oct 30
Waxing Crescent
Nov 2
First Quarter
Nov 10
Full
Nov 18
Last Quarter
Nov 25
New

Hourly Weather History & Observations

Time (CDT) Temp. Heat Index Dew Point Humidity Pressure Visibility Wind Dir Wind Speed Gust Speed Precip Events Conditions
12:15 AM 54.9 °F - 45.7 °F 71% 30.12 in 10.0 mi Calm Calm - N/A   Clear
12:35 AM 54.7 °F - 45.7 °F 72% 30.12 in 10.0 mi East 3.5 mph - N/A   Clear
12:55 AM 54.5 °F - 45.9 °F 73% 30.11 in 10.0 mi Calm Calm - N/A   Clear
1:15 AM 54.1 °F - 45.5 °F 73% 30.10 in 10.0 mi Calm Calm - N/A   Clear
1:35 AM 53.6 °F - 44.4 °F 71% 30.10 in 10.0 mi Calm Calm - N/A   Clear
1:55 AM 52.7 °F - 44.4 °F 73% 30.10 in 10.0 mi Calm Calm - N/A   Clear
2:15 AM 52.7 °F - 44.6 °F 74% 30.09 in 10.0 mi Calm Calm - N/A   Clear
2:35 AM 51.6 °F - 44.4 °F 76% 30.09 in 10.0 mi Calm Calm - N/A   Clear
4:15 AM 51.4 °F - 44.8 °F 78% 30.07 in 10.0 mi North 3.5 mph - N/A   Clear
4:35 AM 50.7 °F - 44.4 °F 79% 30.07 in 10.0 mi NNW 4.6 mph - N/A   Clear
4:55 AM 50.2 °F - 44.2 °F 80% 30.07 in 10.0 mi NNW 4.6 mph - N/A   Clear
5:15 AM 50.2 °F - 44.4 °F 81% 30.08 in 10.0 mi NNW 3.5 mph - N/A   Clear
5:35 AM 50.0 °F - 44.2 °F 81% 30.08 in 10.0 mi NNW 4.6 mph - N/A   Clear
5:55 AM 50.0 °F - 44.1 °F 80% 30.08 in 10.0 mi NNW 3.5 mph - N/A   Clear
6:15 AM 49.5 °F - 43.7 °F 81% 30.09 in 10.0 mi North 4.6 mph - N/A   Clear
6:35 AM 49.3 °F - 43.7 °F 81% 30.09 in 10.0 mi North 3.5 mph - N/A   Clear
6:55 AM 49.3 °F - 43.9 °F 82% 30.09 in 10.0 mi NNW 4.6 mph - N/A   Clear
7:35 AM 49.3 °F - 43.7 °F 81% 30.10 in 10.0 mi North 3.5 mph - N/A   Clear
7:55 AM 49.3 °F - 43.9 °F 82% 30.11 in 10.0 mi NNW 4.6 mph - N/A   Clear
8:15 AM 50.2 °F - 44.6 °F 81% 30.11 in 10.0 mi North 4.6 mph - N/A   Clear
8:35 AM 51.8 °F - 45.5 °F 79% 30.12 in 10.0 mi North 3.5 mph - N/A   Clear
8:55 AM 54.5 °F - 46.4 °F 74% 30.12 in 10.0 mi North 5.8 mph - N/A   Clear
9:15 AM 57.0 °F - 47.3 °F 70% 30.13 in 10.0 mi North 3.5 mph - N/A   Clear
9:35 AM 59.9 °F - 48.4 °F 66% 30.13 in 10.0 mi North 3.5 mph - N/A   Clear
9:55 AM 63.3 °F - 49.3 °F 60% 30.14 in 10.0 mi North 3.5 mph - N/A   Clear
10:15 AM 66.4 °F - 50.4 °F 56% 30.14 in 10.0 mi Calm Calm - N/A   Clear
10:35 AM 70.5 °F - 51.4 °F 51% 30.13 in 10.0 mi East 3.5 mph - N/A   Clear
10:55 AM 73.6 °F - 52.3 °F 47% 30.13 in 10.0 mi SE 4.6 mph - N/A   Clear
11:15 AM 75.4 °F - 52.7 °F 45% 30.13 in 10.0 mi SE 8.1 mph - N/A   Clear
11:35 AM 76.6 °F - 53.2 °F 44% 30.12 in 10.0 mi SE 5.8 mph - N/A   Clear
11:55 AM 77.2 °F - 53.8 °F 44% 30.12 in 10.0 mi South 6.9 mph - N/A   Clear
12:15 PM 78.6 °F - 53.8 °F 42% 30.12 in 7.0 mi SSE 9.2 mph - N/A   Clear
12:35 PM 79.2 °F - 52.2 °F 39% 30.11 in 7.0 mi SSW 8.1 mph - N/A   Clear
12:55 PM 80.2 °F - 51.6 °F 37% 30.09 in 7.0 mi Calm Calm - N/A   Clear
1:15 PM 81.0 °F - 50.5 °F 35% 30.08 in 7.0 mi SE 6.9 mph - N/A   Clear
1:35 PM 81.7 °F - 50.4 °F 34% 30.08 in 10.0 mi South 9.2 mph - N/A   Clear
1:55 PM 81.9 °F - 49.8 °F 33% 30.07 in 7.0 mi Calm Calm - N/A   Clear
2:15 PM 82.2 °F - 50.5 °F 33% 30.06 in 10.0 mi West 3.5 mph - N/A   Clear
2:35 PM 83.1 °F - 50.9 °F 33% 30.05 in 7.0 mi South 8.1 mph - N/A   Clear
3:15 PM 82.9 °F - 51.3 °F 33% 30.04 in 7.0 mi ESE 4.6 mph - N/A   Clear
3:35 PM 83.8 °F - 51.3 °F 32% 30.04 in 5.0 mi SSE 9.2 mph - N/A   Haze
4:15 PM 84.6 °F - 51.1 °F 31% 30.03 in 7.0 mi SE 5.8 mph - N/A   Clear
4:35 PM 84.4 °F - 50.7 °F 31% 30.03 in 7.0 mi Calm Calm - N/A   Clear
5:15 PM 84.4 °F - 51.1 °F 32% 30.03 in 7.0 mi SE 6.9 mph - N/A   Clear
5:35 PM 83.7 °F - 52.0 °F 33% 30.04 in 5.0 mi ESE 17.3 mph - N/A   Haze
5:55 PM 81.9 °F 81.0 °F 53.1 °F 37% 30.04 in 7.0 mi ESE 12.7 mph - N/A   Clear
6:35 PM 79.3 °F - 54.1 °F 42% 30.05 in 7.0 mi ESE 16.1 mph - N/A   Clear
6:55 PM 77.9 °F - 54.7 °F 45% 30.06 in 7.0 mi ESE 15.0 mph - N/A   Clear
7:15 PM 76.3 °F - 55.2 °F 48% 30.07 in 10.0 mi ESE 11.5 mph - N/A   Clear
7:35 PM 75.2 °F - 55.4 °F 50% 30.08 in 7.0 mi ESE 15.0 mph - N/A   Clear
7:55 PM 74.3 °F - 55.4 °F 52% 30.08 in 7.0 mi ESE 11.5 mph - N/A   Clear
8:35 PM 72.3 °F - 55.4 °F 55% 30.11 in 10.0 mi ESE 9.2 mph - N/A   Clear
8:55 PM 71.2 °F - 55.4 °F 57% 30.12 in 10.0 mi ESE 6.9 mph - N/A   Clear
9:15 PM 70.2 °F - 55.4 °F 59% 30.12 in 10.0 mi ESE 5.8 mph - N/A   Clear
9:35 PM 68.7 °F - 54.9 °F 61% 30.13 in 10.0 mi SE 4.6 mph - N/A   Clear
9:55 PM 67.5 °F - 54.7 °F 64% 30.13 in 10.0 mi SSE 3.5 mph - N/A   Clear
10:15 PM 66.9 °F - 54.7 °F 65% 30.14 in 10.0 mi SE 5.8 mph - N/A   Clear
10:55 PM 65.5 °F - 54.0 °F 66% 30.15 in 10.0 mi ESE 3.5 mph - N/A   Clear
11:15 PM 65.1 °F - 54.0 °F 67% 30.15 in 10.0 mi Calm Calm - N/A   Clear
11:35 PM 64.6 °F - 53.8 °F 68% 30.15 in 10.0 mi Calm Calm - N/A   Clear
11:55 PM 64.4 °F - 53.8 °F 68% 30.16 in 10.0 mi ESE 3.5 mph - N/A   Clear